Terminal Aerodrome Forecast
Issued by NWS Louisville, KY

Home | Current Version | Previous Version | Text Only | Print | Product List | Glossary On
Versions: 1 2 3 4 5 6 7 8 9 10 11 12 13
773
FTUS43 KLMK 220837 AAA
TAFSDF
TAF AMD
KSDF 220837Z 2209/2312 VRB04KT P6SM SKC
      TEMPO 2210/2213 5SM BR
     FM221800 31010G18KT P6SM SCT060
     FM230000 VRB05KT P6SM FEW050=

USA.gov is the U.S. government's official web portal to all federal, state and local government web resources and services.